Air Quality Table

TIMESTAMP NO2 SO2 O3 PM10 PM2.5 CO TEMP HUM AIRPRES WS WD NO BENZENE
2023-02-03 21:00 47.51 µg/m3 1.6 µg/m3 13.27 µg/m3 22.65 µg/m3 10.51 µg/m3 0.66 mg/m3 10.51 °C 82.16 % 1,026.14 mbar 0.89 m/s 233.43 Deg 35.6 µg/m3 4.7 µg/m3
2023-02-03 20:00 57.09 µg/m3 1.72 µg/m3 12.33 µg/m3 25.05 µg/m3 11.57 µg/m3 0.57 mg/m3 10.91 °C 81.43 % 1,026.06 mbar 0.77 m/s 231.26 Deg 50.29 µg/m3 2.99 µg/m3
2023-02-03 19:00 61.97 µg/m3 1.43 µg/m3 12.6 µg/m3 31.46 µg/m3 13.25 µg/m3 0.52 mg/m3 12.25 °C 75.93 % 1,026.21 mbar 0.56 m/s 189.35 Deg 53.29 µg/m3 3.46 µg/m3
2023-02-03 18:00 59.93 µg/m3 1.53 µg/m3 18.44 µg/m3 32.52 µg/m3 19.08 µg/m3 0.45 mg/m3 13.59 °C 70.6 % 1,026.01 mbar 0.76 m/s 141.78 Deg 38.86 µg/m3 4.09 µg/m3
2023-02-03 17:00 41.74 µg/m3 1.34 µg/m3 39.85 µg/m3 26.96 µg/m3 8.98 µg/m3 0.36 mg/m3 15.12 °C 63.43 % 1,025.66 mbar 1.06 m/s 155.39 Deg 18.33 µg/m3 1.44 µg/m3
2023-02-03 16:00 29.03 µg/m3 1.28 µg/m3 49.07 µg/m3 27.9 µg/m3 8.29 µg/m3 0.35 mg/m3 15.47 °C 60.86 % 1,025.37 mbar 1.56 m/s 126.78 Deg 13.23 µg/m3 2.03 µg/m3
2023-02-03 15:00 19.94 µg/m3 0.92 µg/m3 60.88 µg/m3 20.55 µg/m3 7.95 µg/m3 0.36 mg/m3 15.17 °C 64.46 % 1,025.05 mbar 2.53 m/s 60.94 Deg 9.15 µg/m3 1.47 µg/m3
2023-02-03 14:00 19.99 µg/m3 1.04 µg/m3 54.11 µg/m3 20.92 µg/m3 8.28 µg/m3 0.39 mg/m3 15.15 °C 67.11 % 1,025.20 mbar 2.52 m/s 64.96 Deg 8.29 µg/m3 2.05 µg/m3
2023-02-03 13:00 18.07 µg/m3 0.86 µg/m3 55.69 µg/m3 20.93 µg/m3 7.59 µg/m3 0.44 mg/m3 15.22 °C 67.52 % 1,025.68 mbar 2.4 m/s 62.31 Deg 8.3 µg/m3 1.18 µg/m3
2023-02-03 12:00 22.93 µg/m3 1.01 µg/m3 49.57 µg/m3 22.46 µg/m3 7.54 µg/m3 0.53 mg/m3 14.99 °C 68.67 % 1,026.35 mbar 2.15 m/s 56.88 Deg 13.23 µg/m3 1.63 µg/m3
2023-02-03 11:00 32.31 µg/m3 1.59 µg/m3 37.52 µg/m3 34.14 µg/m3 9.94 µg/m3 0.65 mg/m3 14.65 °C 70.79 % 1,026.61 mbar 1.6 m/s 62.43 Deg 19.95 µg/m3 2.6 µg/m3
2023-02-03 10:00 51.73 µg/m3 2.29 µg/m3 8.34 µg/m3 58.17 µg/m3 15.47 µg/m3 0.75 mg/m3 13.73 °C 75.47 % 1,026.29 mbar 0.26 m/s 199.34 Deg 91.51 µg/m3 4.97 µg/m3
2023-02-03 09:00 46.62 µg/m3 2.72 µg/m3 1.56 µg/m3 77.32 µg/m3 18.1 µg/m3 0.76 mg/m3 11.66 °C 83.16 % 1,025.60 mbar 0.43 m/s 221.2 Deg 153.7 µg/m3 5.2 µg/m3
2023-02-03 08:00 46.03 µg/m3 2.26 µg/m3 1.31 µg/m3 52.83 µg/m3 13.5 µg/m3 0.65 mg/m3 10.05 °C 84.54 % 1,024.90 mbar 1.03 m/s 235.86 Deg 117.35 µg/m3 4.2 µg/m3
2023-02-03 07:00 46.32 µg/m3 2.14 µg/m3 1.38 µg/m3 41.92 µg/m3 12.39 µg/m3 0.51 mg/m3 9.35 °C 86.41 % 1,024.36 mbar 0.65 m/s 229.36 Deg 132.43 µg/m3 4.88 µg/m3
2023-02-03 06:00 38.64 µg/m3 1.37 µg/m3 9.18 µg/m3 17.48 µg/m3 6.16 µg/m3 0.34 mg/m3 10.5 °C 81.21 % 1,024.14 mbar 0.62 m/s 218.61 Deg 71.04 µg/m3 2.05 µg/m3
2023-02-03 05:00 20.84 µg/m3 0.55 µg/m3 24.62 µg/m3 11.97 µg/m3 4.74 µg/m3 0.27 mg/m3 10.24 °C 82.53 % 1,023.80 mbar 0.87 m/s 232.44 Deg 14.07 µg/m3 0.89 µg/m3
2023-02-03 04:00 12.51 µg/m3 0.67 µg/m3 44.84 µg/m3 9.36 µg/m3 4.26 µg/m3 0.27 mg/m3 11.69 °C 77.36 % 1,024.06 mbar 0.78 m/s 220.94 Deg 2.36 µg/m3 0.73 µg/m3
2023-02-03 03:00 23.28 µg/m3 0.48 µg/m3 42.97 µg/m3 8.36 µg/m3 4.01 µg/m3 0.21 mg/m3 12.37 °C 73.93 % 1,024.04 mbar 1.04 m/s 219.38 Deg 1.8 µg/m3 0.68 µg/m3
2023-02-03 02:00 8.72 µg/m3 0.48 µg/m3 46.33 µg/m3 9.43 µg/m3 4.24 µg/m3 0.31 mg/m3 12.66 °C 72.5 % 1,024.10 mbar 0.78 m/s 219.88 Deg 2.13 µg/m3 0.68 µg/m3
2023-02-03 01:00 8.62 µg/m3 0.54 µg/m3 46.62 µg/m3 9.44 µg/m3 4.75 µg/m3 0.35 mg/m3 12.38 °C 75.14 % 1,024.34 mbar 1.1 m/s 221.32 Deg 2.03 µg/m3 0.87 µg/m3
2023-02-03 00:00 19.25 µg/m3 0.87 µg/m3 34.4 µg/m3 12.09 µg/m3 5.55 µg/m3 0.39 mg/m3 12.01 °C 78.88 % 1,024.44 mbar 1.37 m/s 219.55 Deg 8.98 µg/m3 1.15 µg/m3
2023-02-02 23:00 17.08 µg/m3 0.58 µg/m3 38.04 µg/m3 11.58 µg/m3 5.29 µg/m3 0.39 mg/m3 11.79 °C 79.74 % 1,024.25 mbar 1.23 m/s 220.66 Deg 7.8 µg/m3 0.84 µg/m3
2023-02-02 22:00 19.24 µg/m3 0.61 µg/m3 38.68 µg/m3 12.08 µg/m3 5.52 µg/m3 0.41 mg/m3 11.99 °C 78.84 % 1,024.00 mbar 1.39 m/s 224.6 Deg 8.19 µg/m3 1.26 µg/m3
2023-02-02 21:00 33.93 µg/m3 0.69 µg/m3 24.85 µg/m3 16.84 µg/m3 6.61 µg/m3 0.41 mg/m3 12.35 °C 78.81 % 1,023.82 mbar 1.06 m/s 220.92 Deg 19.34 µg/m3 1.5 µg/m3
2023-02-02 20:00 29.08 µg/m3 1 µg/m3 28.98 µg/m3 16.74 µg/m3 6.09 µg/m3 0.39 mg/m3 12.31 °C 80.08 % 1,023.51 mbar 1.19 m/s 218.38 Deg 16.75 µg/m3 1.6 µg/m3
2023-02-02 19:00 34.47 µg/m3 0.81 µg/m3 30 µg/m3 19.55 µg/m3 7.17 µg/m3 0.36 mg/m3 13.21 °C 80.28 % 1,023.13 mbar 0.69 m/s 286.46 Deg 10.89 µg/m3 3.62 µg/m3
2023-02-02 18:00 22.58 µg/m3 0.7 µg/m3 39.85 µg/m3 17.75 µg/m3 5.99 µg/m3 0.31 mg/m3 13.52 °C 77.91 % 1,022.67 mbar 1.25 m/s 276.72 Deg 5.11 µg/m3 1.1 µg/m3
2023-02-02 17:00 19.66 µg/m3 0.59 µg/m3 46.36 µg/m3 16.33 µg/m3 5.93 µg/m3 0.29 mg/m3 14.05 °C 75.8 % 1,022.19 mbar 1.61 m/s 281.63 Deg 7.1 µg/m3 1.24 µg/m3
2023-02-02 16:00 17.7 µg/m3 0.6 µg/m3 50.42 µg/m3 10.5 µg/m3 5.05 µg/m3 0.3 mg/m3 13.77 °C 79.13 % 1,022.06 mbar 1.73 m/s 321.46 Deg 7.06 µg/m3 0.87 µg/m3
2023-02-02 15:00 17.71 µg/m3 0.45 µg/m3 46.08 µg/m3 8.22 µg/m3 4.71 µg/m3 0.28 mg/m3 12.76 °C 90.85 % 1,022.18 mbar 1.98 m/s 279.34 Deg 8.25 µg/m3 0.94 µg/m3
2023-02-02 14:00 15.9 µg/m3 0.36 µg/m3 49.99 µg/m3 17.22 µg/m3 6.2 µg/m3 0.28 mg/m3 12.92 °C 88.26 % 1,022.52 mbar 3.61 m/s 254.4 Deg 7.87 µg/m3 0.97 µg/m3
2023-02-02 13:00 19.14 µg/m3 0.54 µg/m3 46.62 µg/m3 10.93 µg/m3 5.41 µg/m3 0.28 mg/m3 13.99 °C 78.79 % 1,023.07 mbar 2.47 m/s 254.56 Deg 7.97 µg/m3 1.05 µg/m3
2023-02-02 12:00 12.75 µg/m3 0.52 µg/m3 54.2 µg/m3 8.33 µg/m3 4.75 µg/m3 0.29 mg/m3 13.68 °C 79.92 % 1,023.84 mbar 2.77 m/s 293.26 Deg 5.54 µg/m3 1.1 µg/m3
2023-02-02 11:00 15.24 µg/m3 0.73 µg/m3 50.98 µg/m3 8.43 µg/m3 4.72 µg/m3 0.29 mg/m3 13.61 °C 80.79 % 1,023.86 mbar 2.82 m/s 310.9 Deg 6.77 µg/m3 0.94 µg/m3
2023-02-02 10:00 21.7 µg/m3 0.58 µg/m3 47.71 µg/m3 10.91 µg/m3 5.4 µg/m3 0.3 mg/m3 12.66 °C 85.81 % 1,023.51 mbar 2.28 m/s 295.96 Deg 9.04 µg/m3 1.36 µg/m3
2023-02-02 09:00 27.36 µg/m3 0.69 µg/m3 42.31 µg/m3 13.2 µg/m3 6.1 µg/m3 0.28 mg/m3 13.69 °C 79.32 % 1,022.96 mbar 1.89 m/s 262.09 Deg 9.67 µg/m3 1.36 µg/m3
2023-02-02 08:00 22.48 µg/m3 0.59 µg/m3 48.21 µg/m3 8.27 µg/m3 4.21 µg/m3 0.27 mg/m3 13.89 °C 72.1 % 1,022.63 mbar 3.1 m/s 269.33 Deg 7.68 µg/m3 1.34 µg/m3
2023-02-02 07:00 19.28 µg/m3 0.51 µg/m3 52.43 µg/m3 7.21 µg/m3 4.13 µg/m3 0.26 mg/m3 13.7 °C 74.69 % 1,022.37 mbar 2.96 m/s 275.68 Deg 6.67 µg/m3 1.12 µg/m3
2023-02-02 06:00 10.41 µg/m3 0.52 µg/m3 55.99 µg/m3 7.13 µg/m3 4.13 µg/m3 0.26 mg/m3 13.52 °C 76 % 1,022.18 mbar 3.34 m/s 260.73 Deg 2.18 µg/m3 0.79 µg/m3
2023-02-02 05:00 10.12 µg/m3 0.43 µg/m3 59.81 µg/m3 6.78 µg/m3 3.69 µg/m3 0.26 mg/m3 13.02 °C 75.73 % 1,022.18 mbar 2.58 m/s 249.95 Deg 2.7 µg/m3 0.79 µg/m3
2023-02-02 04:00 7.95 µg/m3 0.41 µg/m3 59.71 µg/m3 6.94 µg/m3 4.07 µg/m3 0.27 mg/m3 12.81 °C 75.58 % 1,022.54 mbar 1.68 m/s 227.69 Deg 0.25 µg/m3 0.79 µg/m3
2023-02-02 03:00 22.67 µg/m3 0.38 µg/m3 61.63 µg/m3 7.54 µg/m3 4.41 µg/m3 0.2 mg/m3 12.85 °C 73.17 % 1,023.20 mbar 1.58 m/s 228.18 Deg 0.43 µg/m3 0.73 µg/m3
2023-02-02 02:00 7.95 µg/m3 0.59 µg/m3 60.23 µg/m3 8.36 µg/m3 4.55 µg/m3 0.33 mg/m3 12.62 °C 73.23 % 1,023.63 mbar 1.36 m/s 224.79 Deg 1.15 µg/m3 1.02 µg/m3
2023-02-02 01:00 8.95 µg/m3 0.48 µg/m3 51.06 µg/m3 7.76 µg/m3 4.37 µg/m3 0.38 mg/m3 11.17 °C 75.15 % 1,024.02 mbar 1.12 m/s 228.55 Deg 1.42 µg/m3 1.03 µg/m3
2023-02-02 00:00 20.51 µg/m3 0.77 µg/m3 51.41 µg/m3 7.19 µg/m3 4.11 µg/m3 0.41 mg/m3 11.72 °C 69.02 % 1,024.46 mbar 1.1 m/s 206.75 Deg 8.11 µg/m3 0.91 µg/m3
2023-02-01 23:00 19.29 µg/m3 0.62 µg/m3 53.79 µg/m3 7.35 µg/m3 4.17 µg/m3 0.43 mg/m3 11.74 °C 68.32 % 1,024.45 mbar 1.29 m/s 215.68 Deg 5.32 µg/m3 1.23 µg/m3
2023-02-01 22:00 15.76 µg/m3 0.61 µg/m3 56.86 µg/m3 7.06 µg/m3 3.82 µg/m3 0.47 mg/m3 11.78 °C 66.32 % 1,024.43 mbar 1.25 m/s 217.88 Deg 4.92 µg/m3 1.29 µg/m3
2023-02-01 21:00 23.46 µg/m3 0.95 µg/m3 47.07 µg/m3 8.91 µg/m3 4.08 µg/m3 0.5 mg/m3 11.59 °C 63.66 % 1,024.65 mbar 1.31 m/s 217.68 Deg 9.74 µg/m3 3.1 µg/m3
2023-02-01 20:00 41.38 µg/m3 0.98 µg/m3 35.26 µg/m3 11.63 µg/m3 4.98 µg/m3 0.49 mg/m3 11.54 °C 62.44 % 1,024.77 mbar 1.13 m/s 208.59 Deg 26.58 µg/m3 2.47 µg/m3
2023-02-01 19:00 49.18 µg/m3 1.15 µg/m3 29.42 µg/m3 14.9 µg/m3 6.79 µg/m3 0.4 mg/m3 11.31 °C 63.42 % 1,024.70 mbar 1.05 m/s 214.17 Deg 29.89 µg/m3 2.52 µg/m3
2023-02-01 18:00 41.93 µg/m3 1.04 µg/m3 36.61 µg/m3 15.94 µg/m3 6.29 µg/m3 0.36 mg/m3 12.21 °C 60.89 % 1,024.44 mbar 1.25 m/s 241.3 Deg 17.53 µg/m3 1.73 µg/m3
2023-02-01 17:00 27.63 µg/m3 0.81 µg/m3 55.08 µg/m3 14.03 µg/m3 5.98 µg/m3 0.31 mg/m3 13.79 °C 56.85 % 1,024.13 mbar 1.94 m/s 273.92 Deg 8.5 µg/m3 1.54 µg/m3
2023-02-01 16:00 21.14 µg/m3 1.21 µg/m3 59.65 µg/m3 12.21 µg/m3 5.69 µg/m3 0.33 mg/m3 14.15 °C 56.4 % 1,024.12 mbar 2.27 m/s 259.17 Deg 7.52 µg/m3 2.41 µg/m3
2023-02-01 15:00 17.77 µg/m3 1.29 µg/m3 62.21 µg/m3 14.69 µg/m3 5.59 µg/m3 0.36 mg/m3 14.21 °C 53.75 % 1,024.11 mbar 1.9 m/s 145.08 Deg 9.26 µg/m3 1.68 µg/m3
2023-02-01 14:00 14.17 µg/m3 1.6 µg/m3 64.09 µg/m3 23.19 µg/m3 7.24 µg/m3 0.39 mg/m3 13.98 °C 52.16 % 1,024.09 mbar 1.96 m/s 124.65 Deg 5.18 µg/m3 1.86 µg/m3
2023-02-01 13:00 15.17 µg/m3 1.41 µg/m3 63.64 µg/m3 16.36 µg/m3 5.85 µg/m3 0.42 mg/m3 13.68 °C 52.34 % 1,024.65 mbar 2.08 m/s 50.63 Deg 7.03 µg/m3 1.68 µg/m3
2023-02-01 12:00 18.13 µg/m3 1.2 µg/m3 56.54 µg/m3 19.78 µg/m3 6.59 µg/m3 0.47 mg/m3 13.56 °C 53.88 % 1,025.28 mbar 2.46 m/s 52 Deg 10.98 µg/m3 1.4 µg/m3
2023-02-01 11:00 27.52 µg/m3 1.36 µg/m3 44.83 µg/m3 31.25 µg/m3 8.72 µg/m3 0.59 mg/m3 13.44 °C 54.98 % 1,025.62 mbar 1.77 m/s 51.97 Deg 14.09 µg/m3 2.59 µg/m3
2023-02-01 10:00 50.06 µg/m3 1.89 µg/m3 21.12 µg/m3 44.79 µg/m3 12.91 µg/m3 0.72 mg/m3 12.97 °C 60.86 % 1,025.38 mbar 0.62 m/s 57.35 Deg 41.27 µg/m3 3.97 µg/m3
2023-02-01 09:00 68.34 µg/m3 2.99 µg/m3 2.17 µg/m3 53.23 µg/m3 15.5 µg/m3 0.81 mg/m3 10.53 °C 71.12 % 1,024.72 mbar 0.55 m/s 178.96 Deg 152.69 µg/m3 5.77 µg/m3
2023-02-01 08:00 62.74 µg/m3 2.6 µg/m3 3.32 µg/m3 41.46 µg/m3 12.45 µg/m3 0.7 mg/m3 9.67 °C 71.42 % 1,024.20 mbar 0.84 m/s 222.16 Deg 144.1 µg/m3 4.74 µg/m3
2023-02-01 07:00 63.07 µg/m3 2.32 µg/m3 6.42 µg/m3 30.57 µg/m3 10.62 µg/m3 0.53 mg/m3 10.3 °C 64.71 % 1,023.71 mbar 0.96 m/s 221.53 Deg 136.27 µg/m3 4.72 µg/m3
2023-02-01 06:00 29.97 µg/m3 0.59 µg/m3 36.73 µg/m3 11.24 µg/m3 5.34 µg/m3 0.3 mg/m3 10.38 °C 64.37 % 1,023.26 mbar 0.83 m/s 251.05 Deg 22.14 µg/m3 1.12 µg/m3
2023-02-01 05:00 12.49 µg/m3 0.44 µg/m3 46.17 µg/m3 11.05 µg/m3 5.32 µg/m3 0.26 mg/m3 10.31 °C 69.24 % 1,022.95 mbar 1.1 m/s 210.38 Deg 5.26 µg/m3 1.18 µg/m3
2023-02-01 04:00 8.9 µg/m3 0.42 µg/m3 48.63 µg/m3 8.91 µg/m3 5.13 µg/m3 0.26 mg/m3 10.54 °C 69.51 % 1,022.58 mbar 0.95 m/s 221.85 Deg 0.91 µg/m3 1.76 µg/m3
2023-02-01 03:00 20.56 µg/m3 0.58 µg/m3 60.32 µg/m3 8.98 µg/m3 5.25 µg/m3 0.17 mg/m3 11.8 °C 64.75 % 1,022.50 mbar 1.63 m/s 145.6 Deg 0.31 µg/m3 1.15 µg/m3
2023-02-01 02:00 0.77 µg/m3 0.41 µg/m3 67.59 µg/m3 8.41 µg/m3 5.11 µg/m3 0.23 mg/m3 13.15 °C 60.45 % 1,022.29 mbar 3.72 m/s 35.76 Deg -0.17 µg/m3 1.12 µg/m3
2023-02-01 01:00 0.11 µg/m3 0.57 µg/m3 67.09 µg/m3 8 µg/m3 4.94 µg/m3 0.24 mg/m3 13.35 °C 58.95 % 1,022.02 mbar 5.16 m/s 43.18 Deg 0.1 µg/m3 1.08 µg/m3
2023-02-01 00:00 0.46 µg/m3 0.42 µg/m3 67.77 µg/m3 7.72 µg/m3 4.84 µg/m3 0.25 mg/m3 13.65 °C 59.34 % 1,021.78 mbar 6.25 m/s 197.91 Deg 0.02 µg/m3 0.94 µg/m3
2023-01-31 23:00 0.46 µg/m3 0.5 µg/m3 67.14 µg/m3 9.49 µg/m3 5.58 µg/m3 0.26 mg/m3 13.7 °C 62.71 % 1,021.40 mbar 6.25 m/s 41.11 Deg -0.21 µg/m3 0.86 µg/m3
2023-01-31 22:00 2.68 µg/m3 0.45 µg/m3 64.26 µg/m3 13.61 µg/m3 7.16 µg/m3 0.25 mg/m3 13.83 °C 65.86 % 1,021.10 mbar 3.92 m/s 107.2 Deg 1.4 µg/m3 0.94 µg/m3
2023-01-31 21:00 2.99 µg/m3 0.36 µg/m3 60.37 µg/m3 14.15 µg/m3 7.53 µg/m3 0.24 mg/m3 13.81 °C 67.74 % 1,020.71 mbar 3.41 m/s 338.34 Deg 0.77 µg/m3 0.92 µg/m3
2023-01-31 20:00 5.88 µg/m3 0.42 µg/m3 62.74 µg/m3 18.01 µg/m3 8.18 µg/m3 0.24 mg/m3 13.8 °C 70.02 % 1,020.27 mbar 3.76 m/s 263.79 Deg 2.12 µg/m3 0.92 µg/m3
2023-01-31 19:00 11.12 µg/m3 0.56 µg/m3 58.66 µg/m3 17.34 µg/m3 7.2 µg/m3 0.23 mg/m3 13.55 °C 67.25 % 1,020.09 mbar 2.53 m/s 303.79 Deg 2.52 µg/m3 1.03 µg/m3
2023-01-31 18:00 12.17 µg/m3 0.57 µg/m3 58.28 µg/m3 18.04 µg/m3 7.25 µg/m3 0.22 mg/m3 13.93 °C 64.29 % 1,019.62 mbar 2.82 m/s 339.41 Deg 4.34 µg/m3 1.1 µg/m3
2023-01-31 17:00 6.01 µg/m3 0.52 µg/m3 63.74 µg/m3 14.24 µg/m3 6.17 µg/m3 0.21 mg/m3 14.54 °C 59.6 % 1,018.96 mbar 4.64 m/s 342.7 Deg 2.66 µg/m3 1.03 µg/m3
2023-01-31 16:00 4.83 µg/m3 0.49 µg/m3 65.21 µg/m3 16.02 µg/m3 7.06 µg/m3 0.21 mg/m3 14.6 °C 60.82 % 1,018.62 mbar 5.41 m/s 346.33 Deg 2.7 µg/m3 0.81 µg/m3
2023-01-31 15:00 7.68 µg/m3 0.58 µg/m3 62.89 µg/m3 18.45 µg/m3 7.53 µg/m3 0.2 mg/m3 14.29 °C 63.75 % 1,018.67 mbar 4.76 m/s 341.76 Deg 3.38 µg/m3 0.89 µg/m3
2023-01-31 14:00 6.88 µg/m3 0.49 µg/m3 64 µg/m3 16.8 µg/m3 7.22 µg/m3 0.21 mg/m3 14.2 °C 62.01 % 1,018.95 mbar 4.6 m/s 324.14 Deg 2.97 µg/m3 0.91 µg/m3
2023-01-31 13:00 6.26 µg/m3 0.58 µg/m3 65.26 µg/m3 17.55 µg/m3 7.45 µg/m3 0.21 mg/m3 14.62 °C 61.42 % 1,019.32 mbar 5.24 m/s 321.44 Deg 2.61 µg/m3 0.86 µg/m3
2023-01-31 12:00 8.28 µg/m3 0.38 µg/m3 62.81 µg/m3 20.03 µg/m3 8.21 µg/m3 0.23 mg/m3 14.7 °C 60.23 % 1,019.84 mbar 4.83 m/s 320.33 Deg 4.45 µg/m3 1 µg/m3
2023-01-31 11:00 8.02 µg/m3 0.39 µg/m3 61.51 µg/m3 19.34 µg/m3 7.96 µg/m3 0.25 mg/m3 14.56 °C 59.08 % 1,020.09 mbar 5.25 m/s 332.73 Deg 5.12 µg/m3 1.03 µg/m3
2023-01-31 10:00 7.56 µg/m3 0.56 µg/m3 60.25 µg/m3 18.98 µg/m3 7.95 µg/m3 0.26 mg/m3 14.13 °C 63.47 % 1,019.82 mbar 5.12 m/s 347.85 Deg 3.35 µg/m3 1.39 µg/m3
2023-01-31 09:00 11.95 µg/m3 0.29 µg/m3 57.98 µg/m3 17.82 µg/m3 7.29 µg/m3 0.26 mg/m3 13.98 °C 61.59 % 1,019.39 mbar 3.44 m/s 316.22 Deg 4.21 µg/m3 1.61 µg/m3
2023-01-31 08:00 13.98 µg/m3 0.48 µg/m3 57.37 µg/m3 19.31 µg/m3 7.41 µg/m3 0.26 mg/m3 13.33 °C 65.25 % 1,019.23 mbar 3.41 m/s 298.3 Deg 5.52 µg/m3 1.55 µg/m3
2023-01-31 07:00 10.89 µg/m3 0.48 µg/m3 60.53 µg/m3 13.61 µg/m3 6.5 µg/m3 0.25 mg/m3 13.31 °C 65.93 % 1,019.00 mbar 3.84 m/s 296.18 Deg 3.99 µg/m3 1.52 µg/m3
2023-01-31 06:00 5.48 µg/m3 0.61 µg/m3 64.77 µg/m3 11.92 µg/m3 6.25 µg/m3 0.25 mg/m3 13.45 °C 67.09 % 1,018.86 mbar 4.02 m/s 295.42 Deg 0.93 µg/m3 1.36 µg/m3
2023-01-31 05:00 4.56 µg/m3 0.49 µg/m3 65.07 µg/m3 8.32 µg/m3 4.12 µg/m3 0.25 mg/m3 12.83 °C 67.28 % 1,018.89 mbar 3.04 m/s 300.71 Deg -0.04 µg/m3 1.31 µg/m3
2023-01-31 04:00 7.04 µg/m3 0.59 µg/m3 62.85 µg/m3 8.57 µg/m3 4.47 µg/m3 0.27 mg/m3 12.49 °C 74 % 1,019.19 mbar 2.66 m/s 290.05 Deg 0.51 µg/m3 1.47 µg/m3
2023-01-31 03:00 18.91 µg/m3 0.35 µg/m3 63.94 µg/m3 8.18 µg/m3 4.3 µg/m3 0.19 mg/m3 12.58 °C 68.32 % 1,019.58 mbar 2.46 m/s 289.37 Deg -0.38 µg/m3 1.57 µg/m3
2023-01-31 02:00 1.88 µg/m3 0.49 µg/m3 64.33 µg/m3 8.18 µg/m3 4.46 µg/m3 0.28 mg/m3 12.56 °C 67.22 % 1,020.05 mbar 2.35 m/s 317.73 Deg -0.18 µg/m3 1.76 µg/m3
2023-01-31 01:00 2.56 µg/m3 0.51 µg/m3 64.01 µg/m3 8.17 µg/m3 4.54 µg/m3 0.29 mg/m3 12.75 °C 67.2 % 1,020.34 mbar 2.38 m/s 251.78 Deg 0.01 µg/m3 1.7 µg/m3
2023-01-31 00:00 3.68 µg/m3 0.48 µg/m3 62.41 µg/m3 8.05 µg/m3 4.37 µg/m3 0.29 mg/m3 13.03 °C 65.21 % 1,020.40 mbar 2.74 m/s 326.51 Deg -0.03 µg/m3 1.63 µg/m3
2023-01-30 23:00 3.54 µg/m3 0.62 µg/m3 62.72 µg/m3 8.42 µg/m3 4.55 µg/m3 0.3 mg/m3 13.04 °C 63.89 % 1,020.25 mbar 2.45 m/s 298.11 Deg -0.18 µg/m3 1.63 µg/m3
2023-01-30 22:00 5.49 µg/m3 0.45 µg/m3 54.69 µg/m3 8.57 µg/m3 4.75 µg/m3 0.31 mg/m3 13.18 °C 65.18 % 1,019.91 mbar 2.5 m/s 278.46 Deg 0.72 µg/m3 1.65 µg/m3
2023-01-30 21:00 10.29 µg/m3 0.63 µg/m3 56.65 µg/m3 11.4 µg/m3 6.22 µg/m3 0.32 mg/m3 12.75 °C 69.06 % 1,019.90 mbar 1.94 m/s 267.69 Deg 0.94 µg/m3 1.76 µg/m3
2023-01-30 20:00 14.27 µg/m3 0.67 µg/m3 53.89 µg/m3 10.28 µg/m3 5.95 µg/m3 0.33 mg/m3 12.59 °C 71.53 % 1,019.81 mbar 1.76 m/s 266.81 Deg 1.46 µg/m3 1.7 µg/m3
2023-01-30 19:00 19.57 µg/m3 0.83 µg/m3 51.15 µg/m3 13.78 µg/m3 6.75 µg/m3 0.32 mg/m3 12.62 °C 70.95 % 1,019.65 mbar 1.39 m/s 281.74 Deg 1.65 µg/m3 1.82 µg/m3
2023-01-30 18:00 21.69 µg/m3 0.75 µg/m3 50.24 µg/m3 13.93 µg/m3 6.8 µg/m3 0.31 mg/m3 12.89 °C 68.1 % 1,019.39 mbar 1.59 m/s 289.91 Deg 4.12 µg/m3 2.34 µg/m3
2023-01-30 17:00 15.74 µg/m3 0.76 µg/m3 59.93 µg/m3 10.01 µg/m3 5.62 µg/m3 0.29 mg/m3 13.74 °C 63.27 % 1,019.33 mbar 2.86 m/s 325.04 Deg 4.28 µg/m3 1.6 µg/m3
2023-01-30 16:00 18.4 µg/m3 0.86 µg/m3 59.71 µg/m3 12.32 µg/m3 5.74 µg/m3 0.28 mg/m3 13.94 °C 61.96 % 1,018.98 mbar 3.54 m/s 107.71 Deg 4.97 µg/m3 1.55 µg/m3
2023-01-30 15:00 28.5 µg/m3 1.33 µg/m3 58.17 µg/m3 12.56 µg/m3 5.53 µg/m3 0.29 mg/m3 14.13 °C 60.92 % 1,018.82 mbar 3.75 m/s 182.37 Deg 2.34 µg/m3 1.71 µg/m3
2023-01-30 14:00 0 µg/m3 1.21 µg/m3 58.09 µg/m3 10.36 µg/m3 5.44 µg/m3 0.3 mg/m3 14.6 °C 61.43 % 1,018.95 mbar 3.38 m/s 295.7 Deg 0 µg/m3 2.94 µg/m3
2023-01-30 13:00 0 µg/m3 1.22 µg/m3 56.72 µg/m3 13.81 µg/m3 5.67 µg/m3 0.31 mg/m3 14.45 °C 62.58 % 1,019.45 mbar 2.76 m/s 275.43 Deg 0 µg/m3 1.73 µg/m3
2023-01-30 12:00 0 µg/m3 1 µg/m3 55.25 µg/m3 15.99 µg/m3 6.2 µg/m3 0.37 mg/m3 14.22 °C 61.31 % 1,019.97 mbar 1.83 m/s 226.69 Deg 0 µg/m3 1.89 µg/m3
2023-01-30 11:00 0 µg/m3 1.2 µg/m3 45.3 µg/m3 29.17 µg/m3 8.24 µg/m3 0.52 mg/m3 13.71 °C 62.38 % 1,020.20 mbar 1.58 m/s 230.26 Deg 0 µg/m3 2.47 µg/m3
2023-01-30 10:00 10.04 µg/m3 1.57 µg/m3 22.38 µg/m3 28.04 µg/m3 10.72 µg/m3 0.7 mg/m3 12.98 °C 72.14 % 1,019.95 mbar 1.04 m/s 271.45 Deg 18.51 µg/m3 4.65 µg/m3
2023-01-30 09:00 45.1 µg/m3 2.6 µg/m3 1.98 µg/m3 22.14 µg/m3 11.83 µg/m3 0.81 mg/m3 9.66 °C 86.01 % 1,019.34 mbar 0.85 m/s 233.5 Deg 131.13 µg/m3 7.56 µg/m3
2023-01-30 08:00 50.23 µg/m3 2.13 µg/m3 0.48 µg/m3 13.99 µg/m3 8 µg/m3 0.72 mg/m3 9.22 °C 81.58 % 1,018.77 mbar 0.89 m/s 231.67 Deg 114.59 µg/m3 4.6 µg/m3
2023-01-30 07:00 58.49 µg/m3 2.12 µg/m3 4.7 µg/m3 13.94 µg/m3 9.25 µg/m3 0.56 mg/m3 10.28 °C 76.31 % 1,018.36 mbar 0.98 m/s 226.19 Deg 134.13 µg/m3 4.25 µg/m3
2023-01-30 06:00 35.47 µg/m3 0.98 µg/m3 26.29 µg/m3 13.58 µg/m3 7.13 µg/m3 0.33 mg/m3 10.91 °C 76.71 % 1,017.87 mbar 1.15 m/s 212.35 Deg 38.98 µg/m3 2.1 µg/m3
2023-01-30 05:00 5.28 µg/m3 0.55 µg/m3 59.47 µg/m3 13.92 µg/m3 6.1 µg/m3 0.27 mg/m3 12.44 °C 73.73 % 1,017.61 mbar 3.68 m/s 48.39 Deg 0.89 µg/m3 1.7 µg/m3
2023-01-30 04:00 8.61 µg/m3 0.71 µg/m3 61.64 µg/m3 13.68 µg/m3 5.53 µg/m3 0.26 mg/m3 10.24 °C 80.57 % 1,017.92 mbar 2.83 m/s 182.88 Deg 0.18 µg/m3 1.36 µg/m3
2023-01-30 03:00 27.45 µg/m3 0.74 µg/m3 61.6 µg/m3 13.12 µg/m3 4.87 µg/m3 0.18 mg/m3 11.3 °C 80.09 % 1,018.28 mbar 2.31 m/s 231.58 Deg 0.11 µg/m3 1.39 µg/m3
2023-01-30 02:00 1.9 µg/m3 0.96 µg/m3 66.62 µg/m3 8.6 µg/m3 3.43 µg/m3 0.26 mg/m3 12.02 °C 72.42 % 1,018.17 mbar 3.49 m/s 32.53 Deg 0.09 µg/m3 1.23 µg/m3
2023-01-30 01:00 0.63 µg/m3 0.77 µg/m3 62.87 µg/m3 9.75 µg/m3 5 µg/m3 0.3 mg/m3 12.88 °C 70.51 % 1,017.82 mbar 5.93 m/s 42.37 Deg 0.67 µg/m3 1.65 µg/m3
2023-01-30 00:00 2.2 µg/m3 0.53 µg/m3 60.64 µg/m3 12.7 µg/m3 6.57 µg/m3 0.32 mg/m3 13.52 °C 66.75 % 1,018.00 mbar 4.95 m/s 39.88 Deg 1.5 µg/m3 1.66 µg/m3
2023-01-29 23:00 1.1 µg/m3 0.37 µg/m3 63.54 µg/m3 12.42 µg/m3 6.53 µg/m3 0.34 mg/m3 13.5 °C 68.83 % 1,017.85 mbar 5.37 m/s 53.83 Deg 0.93 µg/m3 1.68 µg/m3
2023-01-29 22:00 2.9 µg/m3 0.66 µg/m3 60.19 µg/m3 13.06 µg/m3 6.61 µg/m3 0.37 mg/m3 13.33 °C 71.12 % 1,017.75 mbar 5.16 m/s 44.04 Deg 1.11 µg/m3 1.84 µg/m3
2023-01-29 21:00 15.63 µg/m3 0.74 µg/m3 43.32 µg/m3 13.01 µg/m3 6.28 µg/m3 0.4 mg/m3 10.47 °C 84.51 % 1,017.57 mbar 1.47 m/s 237.67 Deg 4.69 µg/m3 1.99 µg/m3
2023-01-29 20:00 28.66 µg/m3 0.64 µg/m3 37.55 µg/m3 9.15 µg/m3 4.91 µg/m3 0.4 mg/m3 10.28 °C 87.24 % 1,017.49 mbar 1.08 m/s 146.46 Deg 8.52 µg/m3 2.39 µg/m3
2023-01-29 19:00 32.6 µg/m3 0.73 µg/m3 34.76 µg/m3 9.35 µg/m3 4.68 µg/m3 0.39 mg/m3 10.3 °C 87.15 % 1,017.25 mbar 0.99 m/s 137.45 Deg 11.06 µg/m3 2.73 µg/m3
2023-01-29 18:00 13.4 µg/m3 0.42 µg/m3 51.47 µg/m3 13.62 µg/m3 4.77 µg/m3 0.33 mg/m3 11.77 °C 76.72 % 1,016.67 mbar 3.05 m/s 174.29 Deg 5.38 µg/m3 1.81 µg/m3
2023-01-29 17:00 8.38 µg/m3 0.5 µg/m3 56.8 µg/m3 11.23 µg/m3 4.17 µg/m3 0.31 mg/m3 12.7 °C 73.3 % 1,016.09 mbar 5.11 m/s 59.21 Deg 4.77 µg/m3 1.89 µg/m3
2023-01-29 16:00 8.42 µg/m3 0.9 µg/m3 56.36 µg/m3 12.98 µg/m3 4.43 µg/m3 0.31 mg/m3 12.92 °C 73.67 % 1,015.91 mbar 5.17 m/s 46.23 Deg 5.09 µg/m3 1.87 µg/m3
2023-01-29 15:00 5.62 µg/m3 0.54 µg/m3 59.91 µg/m3 11.87 µg/m3 4.68 µg/m3 0.32 mg/m3 12.99 °C 71.52 % 1,015.71 mbar 4.91 m/s 60.68 Deg 3.62 µg/m3 1.73 µg/m3
2023-01-29 14:00 7.89 µg/m3 0.67 µg/m3 58.59 µg/m3 12.69 µg/m3 5.12 µg/m3 0.34 mg/m3 13.05 °C 70.63 % 1,015.91 mbar 4.5 m/s 57.78 Deg 4.54 µg/m3 3.15 µg/m3
2023-01-29 13:00 8.04 µg/m3 0.89 µg/m3 57.21 µg/m3 12.79 µg/m3 4.38 µg/m3 0.34 mg/m3 12.97 °C 68.65 % 1,016.55 mbar 4.07 m/s 54.45 Deg 4.18 µg/m3 1.84 µg/m3
2023-01-29 12:00 7.75 µg/m3 0.82 µg/m3 58.33 µg/m3 10.58 µg/m3 3.36 µg/m3 0.33 mg/m3 12.83 °C 66.14 % 1,017.15 mbar 3.91 m/s 55.43 Deg 3.71 µg/m3 2.15 µg/m3
2023-01-29 11:00 8.72 µg/m3 0.61 µg/m3 54.02 µg/m3 7.66 µg/m3 2.98 µg/m3 0.34 mg/m3 12.68 °C 70.66 % 1,017.17 mbar 3.58 m/s 58.25 Deg 3.88 µg/m3 1.52 µg/m3
2023-01-29 10:00 7.56 µg/m3 0.77 µg/m3 57.75 µg/m3 3.36 µg/m3 2.16 µg/m3 0.35 mg/m3 12.89 °C 66.56 % 1,016.52 mbar 4.5 m/s 47.77 Deg 3.28 µg/m3 1.21 µg/m3
2023-01-29 09:00 15.46 µg/m3 0.53 µg/m3 49.62 µg/m3 3.7 µg/m3 2.19 µg/m3 0.37 mg/m3 12.19 °C 69.91 % 1,015.88 mbar 2.62 m/s 117.68 Deg 9.39 µg/m3 1.84 µg/m3
2023-01-29 08:00 22.19 µg/m3 0.61 µg/m3 36.98 µg/m3 5.96 µg/m3 2.82 µg/m3 0.32 mg/m3 10.52 °C 76.84 % 1,015.28 mbar 0.75 m/s 237.04 Deg 11.58 µg/m3 1.31 µg/m3
2023-01-29 07:00 8.97 µg/m3 0.55 µg/m3 55.37 µg/m3 5.4 µg/m3 2.28 µg/m3 0.27 mg/m3 10.5 °C 77.46 % 1,014.95 mbar 1.4 m/s 274.21 Deg 3.27 µg/m3 1.21 µg/m3
2023-01-29 06:00 6.42 µg/m3 0.44 µg/m3 56.28 µg/m3 4.35 µg/m3 2.13 µg/m3 0.28 mg/m3 10.53 °C 76.66 % 1,014.72 mbar 2.21 m/s 290.12 Deg 1.2 µg/m3 1.12 µg/m3
2023-01-29 05:00 10.23 µg/m3 0.7 µg/m3 51.16 µg/m3 3.55 µg/m3 2.06 µg/m3 0.29 mg/m3 10.11 °C 79.68 % 1,014.48 mbar 1.67 m/s 238.4 Deg 2.4 µg/m3 1.23 µg/m3
2023-01-29 04:00 10.5 µg/m3 0.37 µg/m3 55.08 µg/m3 3.06 µg/m3 1.99 µg/m3 0.31 mg/m3 10.48 °C 78.33 % 1,014.24 mbar 1.23 m/s 261.72 Deg 1.19 µg/m3 1.18 µg/m3
2023-01-29 03:00 31.33 µg/m3 0.57 µg/m3 52.12 µg/m3 4.14 µg/m3 2.27 µg/m3 0.21 mg/m3 10.52 °C 78.39 % 1,014.19 mbar 1.07 m/s 260.98 Deg 1.41 µg/m3 1.31 µg/m3
2023-01-29 02:00 8.57 µg/m3 0.36 µg/m3 53.92 µg/m3 4.52 µg/m3 2.42 µg/m3 0.26 mg/m3 10.89 °C 77.45 % 1,014.09 mbar 1.39 m/s 255.77 Deg 1.82 µg/m3 1.23 µg/m3
2023-01-29 01:00 7.9 µg/m3 0.41 µg/m3 49.94 µg/m3 4.7 µg/m3 2.75 µg/m3 0.27 mg/m3 10.54 °C 78.81 % 1,013.80 mbar 1.49 m/s 281.95 Deg 1.83 µg/m3 1.21 µg/m3
2023-01-29 00:00 1.24 µg/m3 0.49 µg/m3 69.08 µg/m3 4.51 µg/m3 1.76 µg/m3 0.28 mg/m3 10.91 °C 71.89 % 1,013.74 mbar 2.88 m/s 120.32 Deg 0.98 µg/m3 1.05 µg/m3
2023-01-28 23:00 5.33 µg/m3 0.49 µg/m3 60.44 µg/m3 10.02 µg/m3 3.68 µg/m3 0.32 mg/m3 10.14 °C 82.75 % 1,013.96 mbar 2.7 m/s 282.03 Deg 1.95 µg/m3 1.24 µg/m3
2023-01-28 22:00 8.77 µg/m3 0.41 µg/m3 53.56 µg/m3 11.34 µg/m3 4.05 µg/m3 0.38 mg/m3 9.99 °C 83.48 % 1,013.36 mbar 2.73 m/s 256.08 Deg 2.19 µg/m3 1.5 µg/m3
2023-01-28 21:00 28.59 µg/m3 0.68 µg/m3 28.6 µg/m3 8.15 µg/m3 3.61 µg/m3 0.41 mg/m3 9.41 °C 86.54 % 1,012.83 mbar 1.49 m/s 221.78 Deg 16.88 µg/m3 2.12 µg/m3
2023-01-28 20:00 33.63 µg/m3 0.76 µg/m3 27.33 µg/m3 6.06 µg/m3 3.21 µg/m3 0.37 mg/m3 9.22 °C 86.64 % 1,012.43 mbar 1.18 m/s 212.73 Deg 16.34 µg/m3 2.39 µg/m3
2023-01-28 19:00 21.32 µg/m3 0.6 µg/m3 46.42 µg/m3 8.09 µg/m3 3.53 µg/m3 0.33 mg/m3 9.47 °C 84.42 % 1,012.37 mbar 2.35 m/s 257.02 Deg 11.09 µg/m3 1.4 µg/m3
2023-01-28 18:00 19.9 µg/m3 0.74 µg/m3 52.32 µg/m3 4.73 µg/m3 2.25 µg/m3 0.31 mg/m3 10.99 °C 68.08 % 1,011.57 mbar 1.87 m/s 274.47 Deg 7.57 µg/m3 1.33 µg/m3
2023-01-28 17:00 9.48 µg/m3 0.63 µg/m3 62.35 µg/m3 5.89 µg/m3 2.56 µg/m3 0.31 mg/m3 11.11 °C 73.68 % 1,011.25 mbar 3.45 m/s 294.43 Deg 4.33 µg/m3 1.21 µg/m3
2023-01-28 16:00 28.64 µg/m3 0.75 µg/m3 36.72 µg/m3 7.03 µg/m3 3.77 µg/m3 0.34 mg/m3 10.37 °C 83.63 % 1,010.69 mbar 2.46 m/s 212.84 Deg 14.12 µg/m3 1.91 µg/m3
2023-01-28 15:00 25.92 µg/m3 0.67 µg/m3 39.09 µg/m3 6.38 µg/m3 3.19 µg/m3 0.32 mg/m3 10.4 °C 82.89 % 1,010.32 mbar 2.68 m/s 234.22 Deg 14.03 µg/m3 1.61 µg/m3
2023-01-28 14:00 26.11 µg/m3 0.47 µg/m3 40.01 µg/m3 8.8 µg/m3 3.25 µg/m3 0.31 mg/m3 10.33 °C 80.55 % 1,010.41 mbar 2.4 m/s 240.28 Deg 14.41 µg/m3 1.24 µg/m3
2023-01-28 13:00 9.54 µg/m3 0.6 µg/m3 59.07 µg/m3 10.31 µg/m3 2.75 µg/m3 0.31 mg/m3 12.84 °C 65.42 % 1,010.59 mbar 2.75 m/s 272.55 Deg 4.15 µg/m3 1.21 µg/m3
2023-01-28 12:00 24.1 µg/m3 0.83 µg/m3 44.54 µg/m3 6.41 µg/m3 2.5 µg/m3 0.33 mg/m3 11.6 °C 75.04 % 1,011.03 mbar 1.36 m/s 177.9 Deg 15.55 µg/m3 1.54 µg/m3
2023-01-28 11:00 13.01 µg/m3 0.63 µg/m3 57.09 µg/m3 7.23 µg/m3 2.34 µg/m3 0.31 mg/m3 12.26 °C 70.36 % 1,011.28 mbar 2.24 m/s 329.58 Deg 6.13 µg/m3 1.45 µg/m3
2023-01-28 10:00 15.69 µg/m3 0.63 µg/m3 51.55 µg/m3 7.23 µg/m3 2.52 µg/m3 0.32 mg/m3 10.91 °C 78.87 % 1,011.01 mbar 1.67 m/s 294.16 Deg 5.75 µg/m3 1.36 µg/m3
2023-01-28 09:00 22.95 µg/m3 0.5 µg/m3 47.49 µg/m3 6.65 µg/m3 2.29 µg/m3 0.34 mg/m3 9.45 °C 79.13 % 1,010.32 mbar 1.94 m/s 289.14 Deg 12.36 µg/m3 1.31 µg/m3
2023-01-28 08:00 23.05 µg/m3 0.59 µg/m3 43.51 µg/m3 6.34 µg/m3 3.05 µg/m3 0.34 mg/m3 10.7 °C 74.84 % 1,009.90 mbar 2.79 m/s 259.8 Deg 11.69 µg/m3 1.54 µg/m3
2023-01-28 07:00 30.86 µg/m3 0.79 µg/m3 33.86 µg/m3 5.84 µg/m3 2.71 µg/m3 0.32 mg/m3 9.93 °C 75.93 % 1,009.58 mbar 1.62 m/s 236.88 Deg 21.15 µg/m3 2.34 µg/m3
2023-01-28 06:00 24.4 µg/m3 0.72 µg/m3 41.59 µg/m3 6.38 µg/m3 2.43 µg/m3 0.26 mg/m3 9.68 °C 77.56 % 1,009.46 mbar 1.32 m/s 216.25 Deg 17.4 µg/m3 1.36 µg/m3
2023-01-28 05:00 5.29 µg/m3 0.25 µg/m3 63.22 µg/m3 3.59 µg/m3 1.49 µg/m3 0.23 mg/m3 10.25 °C 72.95 % 1,009.23 mbar 2.98 m/s 253.91 Deg 0.8 µg/m3 1 µg/m3
2023-01-28 04:00 7.7 µg/m3 0.28 µg/m3 68.32 µg/m3 5.15 µg/m3 1.81 µg/m3 0.23 mg/m3 10.4 °C 73.91 % 1,009.35 mbar 3.48 m/s 263.33 Deg 0.34 µg/m3 0.94 µg/m3
2023-01-28 03:00 27.65 µg/m3 0.5 µg/m3 64.74 µg/m3 6.16 µg/m3 2.32 µg/m3 0.17 mg/m3 9.94 °C 78.21 % 1,009.44 mbar 3.18 m/s 261.72 Deg 0.82 µg/m3 1 µg/m3
2023-01-28 02:00 3.84 µg/m3 0.32 µg/m3 66.52 µg/m3 6.24 µg/m3 2.76 µg/m3 0.26 mg/m3 11.07 °C 76.72 % 1,009.23 mbar 3.47 m/s 269.85 Deg 0.83 µg/m3 1.23 µg/m3
2023-01-28 01:00 4.74 µg/m3 0.36 µg/m3 61.13 µg/m3 12.63 µg/m3 4.77 µg/m3 0.29 mg/m3 11.01 °C 77.58 % 1,009.36 mbar 1.98 m/s 275.49 Deg 1.73 µg/m3 1.23 µg/m3
2023-01-28 00:00 6.9 µg/m3 0.49 µg/m3 59.04 µg/m3 6.04 µg/m3 3.04 µg/m3 0.29 mg/m3 11.81 °C 72.93 % 1,009.41 mbar 1.68 m/s 279.39 Deg 1.2 µg/m3 1.52 µg/m3
2023-01-27 23:00 6.79 µg/m3 0.36 µg/m3 55.81 µg/m3 8.59 µg/m3 3.91 µg/m3 0.29 mg/m3 11.61 °C 77.08 % 1,009.36 mbar 1.55 m/s 265.43 Deg 2.23 µg/m3 1.6 µg/m3

It is to be noted that the data is provisional and subject to quality assurance procedures. For validated data kindly refer your request to contact.air@era.org.mt